Torna al catalogo

STARLINK-36208

AttivoComunicazioniVLEO
NORAD 67108·PAYLOAD·🇺🇸 United States

Lanciato Dec 15, 2025 da Cape Canaveral Space Force Station

Loading…

Prossimi Passaggi (prossime 24 ore)

TLE

AggiornatoSource: CelesTrak SupGP

Epoca: Sep 15, 2026, 02:50 UTC

1 67108C 25299G   26258.11854167 -.00028852  00000+0 -10452-2 0  2583
2 67108  42.9998 178.8476 0001424 276.1656 347.2498 15.27588698    17

Traccia STARLINK-36208 in tempo reale con AllMySat

Download on the App Store